Time,TemperatureF,DewpointF,PressureIn,WindDirection,WindDirectionDegrees,WindSpeedMPH,WindSpeedGustMPH,Humidity,HourlyPrecipIn,Conditions,Clouds,dailyrainin,SolarRadiationWatts/m^2,SoftwareType,DateUTC
2013-03-16 00:12:00,26.0,26.0,-100.00,NNE,15,6.0,14.0,100,0.00,,,0.08,1.000000,,2013-03-16 05:12:00,
2013-03-16 00:22:00,26.0,26.0,-100.00,NNE,15,6.0,14.0,100,0.00,,,0.08,1.000000,,2013-03-16 05:22:00,
2013-03-16 00:32:00,26.0,26.0,-100.00,NNE,15,6.0,14.0,100,0.00,,,0.08,1.000000,,2013-03-16 05:32:00,
2013-03-16 00:42:00,26.0,26.0,-100.00,NNE,15,6.0,14.0,100,0.00,,,0.08,1.000000,,2013-03-16 05:42:00,
2013-03-16 01:12:00,25.0,25.0,-100.00,NNE,23,8.0,13.0,100,0.00,,,0.08,1.000000,,2013-03-16 06:12:00,
2013-03-16 01:22:00,25.0,25.0,-100.00,NNE,23,8.0,13.0,100,0.00,,,0.08,1.000000,,2013-03-16 06:22:00,
2013-03-16 01:32:00,25.0,25.0,-100.00,NNE,23,8.0,13.0,100,0.00,,,0.08,1.000000,,2013-03-16 06:32:00,
2013-03-16 01:42:00,25.0,25.0,-100.00,NNE,23,8.0,13.0,100,0.00,,,0.08,1.000000,,2013-03-16 06:42:00,
2013-03-16 02:12:00,24.0,24.0,-100.00,NNE,17,8.0,13.0,100,0.00,,,0.08,1.000000,,2013-03-16 07:12:00,
2013-03-16 02:22:00,24.0,24.0,-100.00,NNE,17,8.0,13.0,100,0.00,,,0.08,1.000000,,2013-03-16 07:22:00,
2013-03-16 02:32:00,24.0,24.0,-100.00,NNE,17,8.0,13.0,100,0.00,,,0.08,1.000000,,2013-03-16 07:32:00,
2013-03-16 02:42:00,24.0,24.0,-100.00,NNE,17,8.0,13.0,100,0.00,,,0.08,1.000000,,2013-03-16 07:42:00,
2013-03-16 03:12:00,23.0,23.0,-100.00,NNE,15,8.0,14.0,100,0.00,,,0.08,1.000000,,2013-03-16 08:12:00,
2013-03-16 03:23:00,23.0,23.0,-100.00,NNE,15,8.0,14.0,100,0.00,,,0.08,1.000000,,2013-03-16 08:23:00,
2013-03-16 03:32:00,23.0,23.0,-100.00,NNE,15,8.0,14.0,100,0.00,,,0.08,1.000000,,2013-03-16 08:32:00,
2013-03-16 03:42:00,23.0,23.0,-100.00,NNE,15,8.0,14.0,100,0.00,,,0.08,1.000000,,2013-03-16 08:42:00,
2013-03-16 04:12:00,22.0,21.0,-100.00,North,9,9.0,15.0,97,0.00,,,0.08,1.000000,,2013-03-16 09:12:00,
2013-03-16 04:22:00,22.0,21.0,-100.00,North,9,9.0,15.0,97,0.00,,,0.08,1.000000,,2013-03-16 09:22:00,
2013-03-16 04:33:00,22.0,21.0,-100.00,North,9,9.0,15.0,97,0.00,,,0.08,1.000000,,2013-03-16 09:33:00,
2013-03-16 04:42:00,22.0,21.0,-100.00,North,9,9.0,15.0,97,0.00,,,0.08,1.000000,,2013-03-16 09:42:00,
2013-03-16 05:12:00,22.0,21.0,-100.00,North,5,10.0,16.0,94,0.00,,,0.08,1.000000,,2013-03-16 10:12:00,
2013-03-16 05:23:00,22.0,21.0,-100.00,North,5,10.0,16.0,94,0.00,,,0.08,1.000000,,2013-03-16 10:23:00,
2013-03-16 05:32:00,22.0,21.0,-100.00,North,5,10.0,16.0,94,0.00,,,0.08,1.000000,,2013-03-16 10:32:00,
2013-03-16 05:42:00,22.0,21.0,-100.00,North,5,10.0,16.0,94,0.00,,,0.08,1.000000,,2013-03-16 10:42:00,
2013-03-16 06:12:00,21.0,18.0,-100.00,North,8,9.0,15.0,88,0.00,,,0.08,1.000000,,2013-03-16 11:12:00,
2013-03-16 06:22:00,21.0,18.0,-100.00,North,8,9.0,15.0,88,0.00,,,0.08,1.000000,,2013-03-16 11:22:00,
2013-03-16 06:32:00,21.0,18.0,-100.00,North,8,9.0,15.0,88,0.00,,,0.08,1.000000,,2013-03-16 11:32:00,
2013-03-16 06:42:00,21.0,18.0,-100.00,North,8,9.0,15.0,88,0.00,,,0.08,1.000000,,2013-03-16 11:42:00,
2013-03-16 07:12:00,20.0,16.0,-100.00,North,354,8.0,17.0,83,0.00,,,0.08,1.000000,,2013-03-16 12:12:00,
2013-03-16 07:22:00,20.0,16.0,-100.00,North,354,8.0,17.0,83,0.00,,,0.08,1.000000,,2013-03-16 12:22:00,
2013-03-16 07:32:00,20.0,16.0,-100.00,North,354,8.0,17.0,83,0.00,,,0.08,1.000000,,2013-03-16 12:32:00,
2013-03-16 07:42:00,20.0,16.0,-100.00,North,354,8.0,17.0,83,0.00,,,0.08,1.000000,,2013-03-16 12:42:00,
2013-03-16 08:12:00,19.0,15.0,-100.00,NNW,344,6.0,12.0,84,0.00,,,0.08,10.000000,,2013-03-16 13:12:00,
2013-03-16 08:22:00,19.0,15.0,-100.00,NNW,344,6.0,12.0,84,0.00,,,0.08,10.000000,,2013-03-16 13:22:00,
2013-03-16 08:32:00,19.0,15.0,-100.00,NNW,344,6.0,12.0,84,0.00,,,0.08,10.000000,,2013-03-16 13:32:00,
2013-03-16 08:42:00,19.0,15.0,-100.00,NNW,344,6.0,12.0,84,0.00,,,0.08,10.000000,,2013-03-16 13:42:00,
2013-03-16 09:12:00,20.0,15.0,-100.00,North,352,9.0,14.0,79,0.00,,,0.08,138.000000,,2013-03-16 14:12:00,
2013-03-16 09:22:00,20.0,15.0,-100.00,North,352,9.0,14.0,79,0.00,,,0.08,138.000000,,2013-03-16 14:22:00,
2013-03-16 09:32:00,20.0,15.0,-100.00,North,352,9.0,14.0,79,0.00,,,0.08,138.000000,,2013-03-16 14:32:00,
2013-03-16 09:42:00,20.0,15.0,-100.00,North,352,9.0,14.0,79,0.00,,,0.08,138.000000,,2013-03-16 14:42:00,
2013-03-16 10:12:00,21.0,14.0,-100.00,North,349,9.0,15.0,75,0.00,,,0.05,312.000000,,2013-03-16 15:12:00,
2013-03-16 10:22:00,21.0,14.0,-100.00,North,349,9.0,15.0,75,0.00,,,0.05,312.000000,,2013-03-16 15:22:00,
2013-03-16 10:33:00,21.0,14.0,-100.00,North,349,9.0,15.0,75,0.00,,,0.05,312.000000,,2013-03-16 15:33:00,
2013-03-16 10:43:00,21.0,14.0,-100.00,North,349,9.0,15.0,75,0.00,,,0.05,312.000000,,2013-03-16 15:43:00,
2013-03-16 11:12:00,24.0,16.0,-100.00,NNW,336,9.0,14.0,71,0.00,,,-99.99,489.000000,,2013-03-16 16:12:00,
2013-03-16 11:22:00,24.0,16.0,-100.00,NNW,336,9.0,14.0,71,0.00,,,-99.99,489.000000,,2013-03-16 16:22:00,
2013-03-16 11:33:00,24.0,16.0,-100.00,NNW,336,9.0,14.0,71,0.00,,,-99.99,489.000000,,2013-03-16 16:33:00,
2013-03-16 11:42:00,24.0,16.0,-100.00,NNW,336,9.0,14.0,71,0.00,,,-99.99,489.000000,,2013-03-16 16:42:00,
2013-03-16 12:13:00,25.0,16.0,-100.00,NW,323,9.0,14.0,68,0.00,,,0.01,654.000000,,2013-03-16 17:13:00,
2013-03-16 12:23:00,25.0,16.0,-100.00,NW,323,9.0,14.0,68,0.00,,,0.01,654.000000,,2013-03-16 17:23:00,
2013-03-16 12:32:00,25.0,16.0,-100.00,NW,323,9.0,14.0,68,0.00,,,0.01,654.000000,,2013-03-16 17:32:00,
2013-03-16 12:42:00,25.0,16.0,-100.00,NW,323,9.0,14.0,68,0.00,,,0.01,654.000000,,2013-03-16 17:42:00,
2013-03-16 13:13:00,25.0,16.0,-100.00,NW,312,11.0,15.0,67,0.00,,,-99.99,751.000000,,2013-03-16 18:13:00,
2013-03-16 13:23:00,25.0,16.0,-100.00,NW,312,11.0,15.0,67,0.00,,,-99.99,751.000000,,2013-03-16 18:23:00,
2013-03-16 13:33:00,25.0,16.0,-100.00,NW,312,11.0,15.0,67,0.00,,,-99.99,751.000000,,2013-03-16 18:33:00,
2013-03-16 13:42:00,25.0,16.0,-100.00,NW,312,11.0,15.0,67,0.00,,,-99.99,751.000000,,2013-03-16 18:42:00,
2013-03-16 14:12:00,25.0,15.0,-100.00,NW,310,12.0,17.0,66,0.00,,,0.00,775.000000,,2013-03-16 19:12:00,
2013-03-16 14:22:00,25.0,15.0,-100.00,NW,310,12.0,17.0,66,0.00,,,0.00,775.000000,,2013-03-16 19:22:00,
2013-03-16 14:32:00,25.0,15.0,-100.00,NW,310,12.0,17.0,66,0.00,,,0.00,775.000000,,2013-03-16 19:32:00,
2013-03-16 14:42:00,25.0,15.0,-100.00,NW,310,12.0,17.0,66,0.00,,,0.00,775.000000,,2013-03-16 19:42:00,
2013-03-16 15:12:00,26.0,15.0,-100.00,NW,305,11.0,17.0,62,0.00,,,0.00,743.000000,,2013-03-16 20:12:00,
2013-03-16 15:22:00,26.0,15.0,-100.00,NW,305,11.0,17.0,62,0.00,,,0.00,743.000000,,2013-03-16 20:22:00,
2013-03-16 15:32:00,26.0,15.0,-100.00,NW,305,11.0,17.0,62,0.00,,,0.00,743.000000,,2013-03-16 20:32:00,
2013-03-16 15:42:00,26.0,15.0,-100.00,NW,305,11.0,17.0,62,0.00,,,0.00,743.000000,,2013-03-16 20:42:00,
2013-03-16 16:12:00,25.0,13.0,-100.00,WNW,291,11.0,19.0,60,0.00,,,0.00,646.000000,,2013-03-16 21:12:00,
2013-03-16 16:22:00,25.0,13.0,-100.00,WNW,291,11.0,19.0,60,0.00,,,0.00,646.000000,,2013-03-16 21:22:00,
2013-03-16 16:33:00,25.0,13.0,-100.00,WNW,291,11.0,19.0,60,0.00,,,0.00,646.000000,,2013-03-16 21:33:00,
2013-03-16 16:43:00,25.0,13.0,-100.00,WNW,291,11.0,19.0,60,0.00,,,0.00,646.000000,,2013-03-16 21:43:00,
2013-03-16 17:12:00,25.0,12.0,-100.00,NW,305,12.0,17.0,56,0.00,,,0.00,503.000000,,2013-03-16 22:12:00,
2013-03-16 17:23:00,25.0,12.0,-100.00,NW,305,12.0,17.0,56,0.00,,,0.00,503.000000,,2013-03-16 22:23:00,
2013-03-16 17:33:00,25.0,12.0,-100.00,NW,305,12.0,17.0,56,0.00,,,0.00,503.000000,,2013-03-16 22:33:00,
2013-03-16 17:42:00,25.0,12.0,-100.00,NW,305,12.0,17.0,56,0.00,,,0.00,503.000000,,2013-03-16 22:42:00,
2013-03-16 18:13:00,23.0,10.0,-100.00,NW,308,12.0,20.0,56,0.00,,,0.00,333.000000,,2013-03-16 23:13:00,
2013-03-16 18:22:00,23.0,10.0,-100.00,NW,308,12.0,20.0,56,0.00,,,0.00,333.000000,,2013-03-16 23:22:00,
2013-03-16 18:33:00,23.0,10.0,-100.00,NW,308,12.0,20.0,56,0.00,,,0.00,333.000000,,2013-03-16 23:33:00,
2013-03-16 18:42:00,23.0,10.0,-100.00,NW,308,12.0,20.0,56,0.00,,,0.00,333.000000,,2013-03-16 23:42:00,
2013-03-16 19:12:00,20.0,8.0,-100.00,WNW,295,10.0,17.0,58,0.00,,,0.00,149.000000,,2013-03-17 00:12:00,
2013-03-16 19:22:00,20.0,8.0,-100.00,WNW,295,10.0,17.0,58,0.00,,,0.00,149.000000,,2013-03-17 00:22:00,
2013-03-16 19:32:00,20.0,8.0,-100.00,WNW,295,10.0,17.0,58,0.00,,,0.00,149.000000,,2013-03-17 00:32:00,
2013-03-16 19:42:00,20.0,8.0,-100.00,WNW,295,10.0,17.0,58,0.00,,,0.00,149.000000,,2013-03-17 00:42:00,
2013-03-16 20:12:00,18.0,8.0,-100.00,WNW,295,11.0,15.0,64,0.00,,,0.00,15.000000,,2013-03-17 01:12:00,
2013-03-16 20:22:00,18.0,8.0,-100.00,WNW,295,11.0,15.0,64,0.00,,,0.00,15.000000,,2013-03-17 01:22:00,
2013-03-16 20:32:00,18.0,8.0,-100.00,WNW,295,11.0,15.0,64,0.00,,,0.00,15.000000,,2013-03-17 01:32:00,
2013-03-16 20:42:00,18.0,8.0,-100.00,WNW,295,11.0,15.0,64,0.00,,,0.00,15.000000,,2013-03-17 01:42:00,
2013-03-16 21:13:00,17.0,7.0,-100.00,NW,307,11.0,15.0,64,0.00,,,0.00,1.000000,,2013-03-17 02:13:00,
2013-03-16 21:22:00,17.0,7.0,-100.00,NW,307,11.0,15.0,64,0.00,,,0.00,1.000000,,2013-03-17 02:22:00,
2013-03-16 21:33:00,17.0,7.0,-100.00,NW,307,11.0,15.0,64,0.00,,,0.00,1.000000,,2013-03-17 02:33:00,
2013-03-16 21:42:00,17.0,7.0,-100.00,NW,307,11.0,15.0,64,0.00,,,0.00,1.000000,,2013-03-17 02:42:00,
2013-03-16 22:12:00,15.0,7.0,-100.00,NW,315,9.0,14.0,69,0.00,,,0.00,1.000000,,2013-03-17 03:12:00,
2013-03-16 22:22:00,15.0,7.0,-100.00,NW,315,9.0,14.0,69,0.00,,,0.00,1.000000,,2013-03-17 03:22:00,
2013-03-16 22:33:00,15.0,7.0,-100.00,NW,315,9.0,14.0,69,0.00,,,0.00,1.000000,,2013-03-17 03:33:00,
2013-03-16 22:43:00,15.0,7.0,-100.00,NW,315,9.0,14.0,69,0.00,,,0.00,1.000000,,2013-03-17 03:43:00,
2013-03-16 23:13:00,13.0,4.0,-100.00,WNW,294,5.0,12.0,68,0.00,,,0.00,1.000000,,2013-03-17 04:13:00,
2013-03-16 23:23:00,13.0,4.0,-100.00,WNW,294,5.0,12.0,68,0.00,,,0.00,1.000000,,2013-03-17 04:23:00,
2013-03-16 23:32:00,13.0,4.0,-100.00,WNW,294,5.0,12.0,68,0.00,,,0.00,1.000000,,2013-03-17 04:32:00,
2013-03-16 23:42:00,13.0,4.0,-100.00,WNW,294,5.0,12.0,68,0.00,,,0.00,1.000000,,2013-03-17 04:42:00,